Temp
63 60 59 58 58 58 55 55 55 54 51 50 48 46 45 45 45 45 43 43 42 41 42 42 41 43 42 42 42 42 41 39 32 36 39 40 39 39 40 40 41 40 40
61 62 59 58 58 56 54 55 53 51 50 49 48 46 44 44 45 43 42 42 40 39 40 40 40 44 40 41 40 40 38 38 35 33 37 37 37 39 38 37 43 46 40
60 59 58 57 56 55 53 53 52 49 49 48 46 45 44 43 43 41 40 39 39 38 38 39 38 38 38 39 39 38 38 42 37 35 34 37 37 37 36 36 37 36 43
59 58 56 56 55 54 52 52 50 49 47 46 45 44 43 43 42 39 39 37 37 37 37 38 37 36 34 36 38 37 38 35 35 34 33 33 33 35 33 31 30 33 33
58 58 56 56 55 54 51 50 49 47 45 45 43 42 41 40 40 37 37 37 37 35 35 36 31 33 33 32 31 30 31 30 30 30 29 29 29 28 28 29 28 28 29
58 57 58 56 55 53 50 49 45 44 44 43 41 40 38 40 38 38 37 35 35 32 31 32 31 32 31 31 31 31 29 26 24 25 25 24 26 28 27 25 24 21 20
60 59 59 57 54 51 48 46 43 42 41 39 38 38 37 37 37 36 35 33 32 31 31 32 31 32 31 30 30 30 30 30 27 22 19 23 25 26 25 22 22 22 21
60 60 59 56 53 47 44 43 40 39 38 37 35 35 33 33 34 34 33 32 31 31 32 33 32 29 30 28 27 26 27 28 28 27 24 23 25 25 23 24 22 22 23
61 59 58 54 48 43 40 38 38 37 36 34 34 32 32 32 33 33 32 31 30 30 31 31 32 29 30 30 24 23 24 25 31 33 32 32 32 31 30 24 20 19 17
50 53 52 48 43 40 38 36 36 35 33 33 32 32 33 31 33 32 32 30 28 29 31 31 32 26 28 27 24 21 18 19 19 19 20 24 28 26 30 27 23 19 18
41 38 38 39 38 36 35 34 33 33 32 32 32 31 31 31 31 32 31 30 31 31 31 28 28 29 27 26 25 23 21 20 17 17 19 22 24 21 22 23 22 17 16
35 34 34 34 34 34 33 33 33 32 32 31 30 30 30 30 31 32 32 31 31 31 30 30 27 28 27 26 24 25 24 19 17 19 20 16 15 17 18 18 19 19 21
33 33 33 33 33 33 32 32 32 32 31 30 29 28 28 30 30 32 31 31 30 29 28 28 28 27 26 24 25 25 22 17 18 15 14 15 16 16 16 17 19 20 21
32 32 32 32 32 32 32 33 32 31 30 29 28 27 27 27 27 28 28 26 29 26 25 25 23 24 21 20 21 25 23 20 20 16 15 15 17 15 17 18 14 17 16
32 32 32 32 32 32 32 32 32 32 32 29 29 29 26 25 26 28 28 25 24 26 23 22 18 19 20 21 21 23 24 23 19 17 17 15 16 17 16 15 15 15 12
32 32 32 32 32 32 31 30 32 32 32 32 32 31 30 32 32 31 31 31 31 29 23 20 17 21 20 19 19 19 19 19 20 19 14 15 15 15 14 14 14 13 11
33 32 32 32 32 31 30 28 27 30 32 33 34 34 33 33 33 32 30 28 28 25 16 17 17 17 17 18 19 17 16 17 18 15 13 12 14 14 12 12 12 12 11
34 33 33 32 31 31 29 28 28 26 24 25 30 30 32 32 31 30 29 28 20 19 17 17 16 17 18 20 17 17 16 14 13 13 10 9 8 12 11 11 11 9 10
33 33 33 32 32 31 30 29 28 27 24 23 23 24 25 30 29 29 29 18 20 20 20 20 20 22 21 19 16 13 12 9 8 7 10 11 7 11 9 9 9 9 7
32 32 33 32 31 31 31 29 29 28 26 23 22 22 23 22 20 21 23 19 18 18 18 21 18 17 16 15 13 11 9 8 8 10 6 3 3 6 8 8 7 6 7
32 32 32 32 31 31 31 30 29 29 26 25 24 26 24 23 23 22 22 22 22 24 23 22 21 17 15 14 15 13 12 8 5 4 3 4 2 6 5 6 6 7 7
32 31 32 31 31 30 30 30 30 29 29 27 27 27 26 24 23 26 26 26 24 24 22 18 15 14 13 14 11 6 5 3 4 3 3 4 2 4 4 5 4 4 4
32 33 33 32 31 30 30 29 29 28 28 27 25 23 21 21 20 21 23 23 24 22 19 15 13 11 11 12 11 10 5 2 5 5 3 0 1 1 2 2 1 2 2
33 32 31 31 29 29 30 29 28 26 27 26 26 24 23 21 20 22 25 24 21 18 14 14 12 11 9 6 6 5 5 4 1 -1 -3 -3 -2 -1 -1 0 1 -0 1
32 32 31 30 29 30 29 29 29 27 26 27 26 25 26 25 24 25 23 19 14 13 11 10 9 10 7 7 2 2 1 1 -4 -6 -7 -6 -3 -3 -2 -1 0 1 2
32 31 31 30 29 29 29 28 28 27 25 26 26 27 25 25 23 23 21 18 13 11 10 9 9 9 8 5 4 3 -0 -4 -7 -6 -6 -1 -2 -2 -1 -1 -1 -1 1
MSLP
1004.90 1005.61 1006.13 1006.70 1007.30 1008.03 1008.75 1009.42 1010.32 1011.21 1012.12 1013.22 1014.22 1014.94 1015.63 1016.75 1017.40 1017.99 1018.24 1018.62 1018.98 1019.62 1020.06 1020.26 1020.24 1020.96 1021.55 1022.04 1021.92 1021.96 1022.45 1022.86 1023.18 1022.96 1022.69 1022.73 1023.17 1023.11 1023.33 1023.42 1023.52 1023.77 1023.32
1004.87 1004.96 1005.59 1006.21 1006.73 1007.30 1007.97 1008.62 1009.51 1010.52 1011.69 1012.81 1013.92 1014.92 1015.55 1016.07 1017.22 1017.77 1018.16 1018.74 1019.01 1019.69 1020.21 1020.27 1020.85 1021.21 1021.94 1022.20 1022.05 1022.31 1022.50 1022.89 1023.36 1023.36 1023.04 1023.11 1023.09 1023.03 1023.05 1023.11 1023.48 1023.50 1023.21
1005.04 1004.94 1005.38 1005.80 1006.44 1007.15 1007.81 1008.45 1009.20 1010.23 1011.34 1012.48 1013.61 1014.76 1015.69 1016.36 1017.04 1017.69 1018.20 1018.68 1019.13 1019.83 1020.45 1020.50 1021.51 1021.88 1022.19 1022.27 1022.38 1022.62 1022.70 1022.98 1023.46 1023.60 1023.54 1023.49 1023.34 1023.04 1022.94 1023.16 1023.67 1024.03 1023.55
1004.93 1004.96 1005.28 1005.61 1006.03 1006.70 1007.59 1008.46 1009.38 1010.41 1011.45 1012.49 1013.63 1014.71 1015.53 1016.46 1017.12 1017.80 1018.50 1018.98 1019.14 1020.30 1020.30 1020.86 1021.61 1022.18 1022.81 1022.70 1022.99 1023.20 1023.26 1023.54 1023.85 1023.86 1023.81 1023.90 1023.82 1023.75 1023.51 1023.83 1024.08 1024.26 1023.99
1003.97 1004.53 1004.74 1005.34 1005.92 1006.60 1007.42 1008.23 1009.27 1010.36 1011.53 1012.59 1013.78 1015.04 1016.08 1016.85 1017.58 1018.13 1018.77 1019.29 1019.59 1020.13 1020.95 1021.56 1022.14 1022.96 1023.41 1023.45 1023.71 1024.19 1024.21 1024.36 1024.81 1024.80 1024.72 1024.80 1024.82 1024.75 1024.48 1024.46 1024.78 1024.61 1024.38
1003.00 1003.52 1004.06 1004.78 1005.80 1006.47 1007.14 1008.14 1009.42 1010.65 1011.73 1012.75 1013.78 1014.89 1016.07 1016.82 1017.63 1018.19 1018.60 1019.18 1019.83 1020.82 1021.69 1022.26 1022.90 1023.42 1023.72 1024.16 1024.40 1024.70 1025.00 1025.21 1025.53 1025.86 1025.84 1025.84 1025.68 1025.62 1025.57 1025.35 1025.67 1025.58 1024.49
1002.09 1002.61 1003.32 1004.18 1005.32 1006.19 1007.16 1008.33 1009.64 1010.83 1011.83 1012.82 1013.93 1015.01 1016.27 1017.03 1017.87 1018.47 1019.02 1019.62 1020.04 1020.82 1021.75 1022.35 1023.01 1023.36 1023.80 1024.16 1024.50 1024.65 1024.83 1025.11 1025.78 1026.13 1026.40 1026.05 1026.14 1026.28 1026.38 1025.96 1025.94 1025.67 1025.18
1001.55 1001.87 1002.64 1003.56 1004.55 1006.36 1007.56 1008.42 1009.70 1010.85 1011.93 1012.84 1013.92 1015.06 1016.19 1017.28 1018.01 1018.60 1019.17 1019.84 1020.38 1020.95 1021.51 1022.20 1022.72 1023.35 1023.58 1023.95 1024.22 1024.50 1024.74 1024.92 1025.25 1025.54 1026.05 1026.01 1026.03 1026.41 1026.41 1025.95 1025.87 1025.68 1024.81
1001.24 1001.24 1001.89 1002.60 1004.41 1006.29 1007.86 1008.93 1010.18 1011.19 1012.30 1013.19 1014.09 1015.16 1016.24 1017.29 1018.14 1018.78 1019.43 1020.08 1020.60 1021.04 1021.49 1021.99 1022.55 1023.12 1023.55 1023.97 1024.41 1024.76 1024.95 1025.06 1024.46 1024.51 1025.13 1025.20 1025.37 1025.60 1025.48 1025.30 1025.56 1025.11 1024.04
1002.17 1001.41 1001.60 1002.77 1004.50 1006.11 1007.61 1009.09 1010.27 1011.26 1012.45 1013.39 1014.56 1015.47 1016.30 1017.29 1018.16 1018.97 1019.59 1020.20 1020.75 1021.17 1021.60 1021.98 1022.43 1023.41 1023.87 1024.24 1024.75 1025.02 1025.04 1025.04 1025.07 1025.30 1025.59 1025.16 1025.01 1025.08 1024.75 1024.60 1024.75 1024.35 1023.93
1003.54 1003.33 1002.90 1003.40 1004.81 1006.06 1007.36 1008.84 1009.96 1011.38 1012.61 1013.50 1014.57 1015.53 1016.38 1017.41 1018.33 1018.91 1019.58 1020.20 1020.27 1020.55 1021.12 1021.91 1022.47 1023.16 1023.72 1024.21 1024.66 1024.92 1025.00 1025.18 1025.49 1025.61 1025.32 1025.07 1024.49 1024.48 1024.47 1023.99 1023.96 1024.02 1024.00
1004.71 1004.87 1005.06 1005.11 1005.24 1006.40 1007.48 1009.06 1010.32 1011.47 1012.80 1013.60 1014.84 1015.77 1016.73 1017.49 1018.52 1018.97 1019.49 1020.13 1020.12 1020.14 1020.41 1021.04 1022.08 1022.93 1023.62 1024.08 1024.48 1024.67 1024.93 1025.12 1025.33 1025.31 1024.91 1024.76 1024.65 1024.45 1024.20 1023.88 1023.65 1023.44 1023.15
1005.76 1006.03 1006.37 1006.64 1006.72 1007.17 1008.15 1009.53 1010.67 1011.84 1012.84 1013.86 1014.77 1015.83 1016.63 1017.54 1018.41 1019.07 1019.69 1020.30 1020.47 1020.50 1020.68 1021.14 1022.11 1022.84 1023.43 1023.92 1024.04 1024.29 1024.61 1024.89 1025.01 1024.67 1024.60 1024.64 1024.33 1023.97 1023.56 1023.46 1023.02 1022.63 1022.28
1006.37 1006.65 1007.05 1007.41 1007.91 1008.63 1009.16 1009.98 1010.85 1011.92 1012.92 1014.06 1014.81 1015.77 1016.68 1017.52 1018.19 1019.13 1019.81 1020.43 1020.85 1021.03 1021.62 1021.91 1022.46 1022.65 1022.95 1023.36 1023.60 1023.84 1023.98 1024.09 1023.98 1023.98 1024.20 1023.87 1023.70 1023.47 1023.55 1023.13 1022.66 1022.30 1021.95
1006.93 1007.17 1007.43 1008.03 1008.49 1009.40 1009.95 1010.66 1011.53 1012.34 1012.71 1013.77 1014.87 1015.61 1016.30 1017.13 1017.93 1018.75 1019.50 1020.29 1020.65 1020.99 1021.55 1021.68 1022.35 1022.52 1022.86 1023.16 1023.36 1023.24 1022.93 1023.21 1023.23 1023.45 1023.66 1023.71 1023.60 1023.51 1023.17 1022.84 1022.58 1022.28 1021.93
1007.24 1007.63 1008.04 1008.69 1009.38 1010.08 1010.62 1011.57 1012.45 1012.98 1013.69 1014.38 1015.05 1015.55 1016.40 1016.93 1017.80 1018.61 1019.16 1019.77 1020.35 1020.98 1021.29 1021.57 1021.92 1022.14 1022.40 1022.29 1022.61 1022.83 1022.45 1022.96 1023.18 1023.45 1023.53 1023.55 1023.57 1023.36 1023.08 1022.81 1022.55 1022.22 1021.63
1007.53 1008.08 1008.56 1009.12 1009.76 1010.40 1011.26 1011.97 1012.88 1013.98 1014.43 1014.85 1015.31 1015.80 1016.30 1016.84 1017.76 1018.51 1019.37 1019.92 1020.46 1020.96 1021.31 1021.71 1021.86 1021.75 1021.86 1022.14 1022.44 1022.71 1022.92 1022.93 1023.19 1023.37 1023.50 1023.47 1023.39 1023.23 1023.10 1022.67 1022.32 1021.90 1021.34
1007.82 1008.33 1008.72 1009.44 1010.13 1010.84 1011.55 1012.58 1013.31 1013.97 1015.03 1015.77 1016.21 1016.52 1016.70 1017.26 1018.08 1018.84 1019.39 1019.90 1020.81 1021.00 1021.40 1021.68 1021.51 1021.40 1021.54 1021.89 1022.20 1022.63 1022.74 1023.00 1023.15 1023.26 1023.37 1023.31 1023.24 1023.08 1022.80 1022.49 1022.18 1021.74 1021.18
1008.11 1008.60 1009.06 1009.76 1010.52 1011.23 1011.89 1012.83 1013.58 1014.41 1015.38 1016.24 1017.05 1017.14 1017.30 1017.79 1018.36 1018.95 1019.59 1020.10 1020.45 1020.69 1021.24 1021.19 1020.83 1021.03 1021.30 1021.61 1022.00 1022.37 1022.66 1022.90 1023.03 1023.12 1023.13 1023.07 1023.02 1022.94 1022.68 1022.34 1021.94 1021.54 1021.10
1008.38 1008.80 1009.34 1010.06 1010.80 1011.48 1012.03 1012.96 1013.73 1014.42 1015.42 1016.32 1016.86 1017.19 1017.69 1018.14 1018.54 1019.08 1019.65 1019.98 1020.22 1020.40 1020.22 1020.32 1020.56 1020.88 1021.27 1021.61 1021.92 1022.18 1022.40 1022.61 1022.80 1022.92 1022.97 1022.93 1022.82 1022.70 1022.51 1022.16 1021.82 1021.37 1020.79
1008.68 1009.24 1009.78 1010.48 1011.15 1011.78 1012.37 1012.91 1013.56 1014.13 1014.97 1015.83 1016.22 1016.57 1017.27 1017.94 1018.43 1018.78 1019.19 1019.44 1019.53 1019.50 1019.68 1020.08 1020.64 1021.02 1021.31 1021.59 1021.83 1022.06 1022.34 1022.61 1022.73 1022.76 1022.79 1022.72 1022.62 1022.64 1022.36 1022.03 1021.61 1021.13 1020.48
1008.85 1009.52 1010.03 1010.60 1011.26 1011.93 1012.37 1012.76 1013.44 1013.90 1014.69 1015.13 1015.55 1016.26 1017.05 1017.54 1017.79 1018.01 1018.32 1018.56 1018.77 1019.23 1019.62 1020.26 1020.76 1021.04 1021.30 1021.69 1021.87 1022.07 1022.24 1022.43 1022.56 1022.64 1022.66 1022.65 1022.57 1022.41 1022.20 1021.88 1021.40 1020.87 1020.35
1008.98 1009.40 1010.05 1010.70 1011.26 1011.76 1012.25 1012.82 1013.41 1013.96 1014.47 1015.02 1015.91 1016.63 1017.22 1017.52 1017.59 1017.77 1018.00 1018.38 1018.92 1019.39 1019.79 1020.24 1020.89 1021.29 1021.39 1021.71 1022.01 1022.21 1022.44 1022.50 1022.49 1022.66 1022.90 1022.93 1022.78 1022.54 1022.22 1021.82 1021.29 1020.62 1020.00
1008.91 1009.44 1010.02 1010.67 1011.26 1011.78 1012.35 1012.98 1013.51 1013.97 1014.47 1015.01 1015.65 1016.29 1016.74 1017.11 1017.40 1017.68 1018.06 1018.61 1019.15 1019.53 1019.99 1020.36 1020.73 1021.07 1021.40 1021.63 1021.79 1022.04 1022.18 1022.41 1022.52 1022.69 1022.86 1023.15 1022.90 1022.52 1022.14 1021.52 1020.91 1020.38 1019.57
1009.08 1009.56 1010.17 1010.78 1011.41 1011.93 1012.48 1013.00 1013.49 1014.00 1014.48 1014.95 1015.37 1015.83 1016.30 1016.78 1017.19 1017.62 1018.19 1018.73 1019.32 1019.92 1020.12 1020.43 1020.74 1020.92 1021.15 1021.43 1021.70 1021.83 1021.89 1022.18 1022.53 1022.71 1022.80 1022.79 1022.47 1022.04 1021.61 1021.03 1020.35 1019.60 1018.81
1009.21 1009.75 1010.34 1010.97 1011.54 1012.00 1012.50 1012.98 1013.48 1013.99 1014.45 1014.86 1015.29 1015.68 1016.19 1016.68 1017.11 1017.67 1018.23 1018.81 1019.37 1019.84 1019.98 1020.28 1020.49 1020.62 1020.91 1021.13 1021.29 1021.78 1022.08 1022.24 1022.32 1022.26 1022.29 1022.12 1021.81 1021.42 1020.98 1020.33 1019.72 1019.08 1018.13
Wind_Speed
9 14 14 14 12 11 9 11 11 12 13 14 12 12 13 11 7 7 7 6 7 6 5 5 7 6 2 2 1 1 0 0 1 4 2 2 2 1 2 3 5 5 4
4 8 14 14 13 12 11 14 13 13 15 15 13 13 13 14 11 9 10 7 9 7 5 6 6 4 2 2 2 1 3 3 2 4 3 3 2 2 2 3 4 6 5
6 4 10 11 10 11 10 12 13 15 15 15 16 14 13 12 10 9 9 9 8 7 5 7 5 4 2 3 2 3 1 1 2 2 3 3 3 2 3 3 4 4 6
6 6 7 11 11 11 10 11 12 14 14 14 13 13 13 12 11 11 9 8 10 6 6 6 6 4 4 4 3 3 2 2 4 3 2 3 3 4 3 3 5 4 7
9 7 7 8 9 11 11 12 13 14 14 14 14 12 11 10 9 11 11 9 10 8 7 6 9 9 10 9 5 6 7 5 4 4 4 4 4 5 4 3 5 6 8
11 9 8 9 11 11 14 14 15 14 14 14 13 14 13 10 19 18 13 11 11 9 8 6 7 7 7 7 6 5 4 2 3 3 4 4 5 5 4 5 6 8 7
9 11 9 10 12 10 13 15 16 15 15 14 14 14 13 11 21 20 16 9 9 8 8 6 8 6 8 5 6 4 3 5 5 3 3 4 7 6 5 6 8 8 10
10 11 11 10 11 13 14 15 15 13 14 14 14 13 12 12 21 20 16 9 8 7 6 8 7 8 7 5 3 3 2 3 8 5 5 3 5 4 5 6 8 10 9
10 11 9 10 15 15 14 13 12 12 12 11 12 13 14 14 21 19 12 8 8 8 6 5 4 9 11 7 4 1 3 3 4 8 10 11 13 16 15 6 7 8 9
10 2 7 14 16 16 15 13 10 11 10 11 12 11 16 14 22 21 11 6 8 7 8 8 8 12 11 8 2 2 3 1 5 4 5 8 11 11 18 9 7 8 7
6 6 9 12 15 15 15 13 14 13 13 12 12 12 13 14 16 21 14 6 6 7 8 7 6 15 11 8 4 2 2 3 3 4 6 7 6 3 4 3 2 1 5
6 7 7 9 12 13 17 12 14 13 13 13 13 11 9 11 15 18 16 5 4 4 4 5 10 15 10 6 4 6 6 3 3 6 5 2 2 3 3 2 4 6 6
7 7 7 7 9 12 14 13 11 12 11 11 10 9 8 7 8 16 12 7 6 3 5 15 18 13 9 6 8 10 7 3 6 3 2 3 4 3 3 4 5 5 6
8 9 8 9 10 9 8 9 10 10 10 9 9 9 8 7 7 6 5 4 8 8 9 9 7 6 5 3 2 9 6 6 5 2 3 3 2 2 4 5 3 5 7
8 8 9 9 10 10 8 8 8 7 9 10 8 9 10 8 8 11 9 5 3 4 4 4 2 2 3 5 6 8 5 3 1 2 1 2 4 5 4 3 5 7 9
9 8 8 9 8 9 10 10 15 13 15 14 15 11 7 11 19 19 17 14 14 9 2 2 2 4 5 2 0 2 1 2 1 2 2 2 4 5 6 6 7 7 9
9 9 8 9 9 9 9 10 11 11 13 13 13 15 12 15 20 18 18 16 13 7 2 1 3 3 2 2 1 1 2 0 2 1 1 2 4 6 8 8 7 8 9
9 11 9 8 8 9 9 9 8 8 8 6 11 11 16 19 18 17 16 13 5 2 1 3 3 3 2 2 1 0 2 2 1 1 2 2 3 6 7 8 8 9 10
9 7 8 8 8 9 9 8 8 8 7 7 5 6 8 16 15 14 13 2 4 6 7 5 2 0 0 1 1 1 1 1 1 2 3 3 2 4 6 7 8 11 10
7 13 11 9 9 8 8 8 8 8 9 8 6 7 6 5 4 4 5 3 3 3 2 2 1 2 1 1 1 1 1 2 2 2 2 2 2 3 6 7 8 10 10
8 8 11 8 8 8 7 7 7 7 8 7 7 9 12 8 8 7 8 8 6 4 3 2 2 1 2 1 1 1 1 1 2 2 2 3 2 5 5 7 9 10 11
7 8 8 8 8 7 7 6 6 5 7 5 5 8 12 4 3 6 7 5 3 3 3 3 2 2 2 2 1 1 1 2 2 2 2 2 2 4 6 8 9 9 10
8 9 9 8 7 7 7 5 5 4 5 5 8 6 3 2 2 1 2 3 4 4 3 3 3 3 3 3 3 3 2 2 2 2 3 3 5 6 7 9 10 10 10
8 9 8 7 7 6 6 6 5 5 5 4 7 7 5 4 3 3 3 5 4 4 3 3 2 3 3 2 1 1 1 2 1 2 3 3 6 8 8 9 10 12 12
7 7 8 7 7 6 6 6 5 4 4 4 4 4 5 4 3 3 4 4 4 4 3 2 2 2 1 4 2 2 3 5 4 3 2 4 8 10 10 10 11 11 12
6 8 7 7 6 6 6 5 6 5 4 4 4 4 3 3 3 4 5 5 4 3 3 2 2 1 2 1 2 8 5 2 2 5 4 6 7 8 9 10 13 11 14
Wind_Direction
176 188 189 190 185 192 173 165 170 164 152 158 156 149 143 145 147 145 132 138 128 119 127 126 85 84 106 146 141 71 134 216 246 307 355 4 10 350 314 335 332 305 308
291 200 189 186 186 182 168 170 159 155 155 159 156 155 154 156 161 154 150 145 137 132 134 113 110 119 54 328 49 252 52 3 1 296 316 309 334 287 294 346 320 314 319
273 245 182 187 183 183 171 162 156 148 152 155 153 162 161 157 157 143 141 133 120 118 129 104 128 110 209 226 137 22 93 292 262 264 301 319 282 1 358 10 311 320 326
240 248 192 190 182 170 161 161 155 152 154 152 155 156 155 160 151 139 133 142 122 132 110 114 110 81 15 58 69 27 330 349 327 316 311 317 356 337 12 360 338 333 334
196 222 215 182 177 174 162 156 156 150 152 151 151 152 153 149 148 141 144 148 140 105 80 89 83 91 82 66 52 32 23 20 1 355 348 353 337 354 342 349 333 327 312
189 204 208 179 189 177 165 160 148 153 154 153 152 152 153 159 155 157 152 147 124 128 139 131 115 114 104 98 99 79 68 44 30 341 331 331 326 326 343 355 334 322 315
191 191 202 181 183 164 150 149 155 159 153 154 153 153 160 148 150 148 138 132 132 141 149 155 155 144 132 158 179 186 220 209 193 190 237 270 293 326 340 335 311 297 292
198 193 190 172 159 145 152 155 154 156 158 156 154 153 144 151 151 143 129 127 128 136 153 160 156 156 155 128 67 20 322 199 215 203 213 251 280 301 282 280 292 286 283
292 185 186 157 143 149 157 152 152 150 156 153 144 138 145 150 148 139 134 136 136 142 150 139 166 124 137 128 89 294 273 268 280 252 263 273 281 281 283 276 268 283 288
350 215 139 134 147 149 148 147 148 140 133 136 141 145 146 145 148 155 145 141 152 160 171 169 159 124 138 130 132 272 262 9 21 352 314 297 283 274 274 255 258 267 296
19 32 89 124 140 141 138 138 138 139 142 143 138 136 136 147 158 160 150 157 175 176 165 154 151 149 146 148 171 277 353 349 317 284 277 263 248 260 267 265 239 221 284
53 62 67 113 127 133 132 134 139 139 139 135 131 131 143 146 163 164 167 150 11 142 140 129 144 155 152 166 195 240 243 274 267 262 258 286 289 269 270 292 264 253 252
82 85 91 97 110 122 129 129 130 133 135 135 134 137 134 140 153 164 169 143 58 45 86 123 139 150 164 202 223 234 242 229 244 243 263 263 243 248 285 293 276 275 276
106 104 103 106 107 107 119 129 131 139 137 138 138 138 138 137 131 137 156 143 137 102 117 129 152 168 177 219 234 219 218 232 235 213 241 242 282 345 301 284 301 306 303
112 112 110 110 111 114 107 118 130 126 138 143 149 146 146 152 164 161 158 162 158 173 158 114 134 175 206 222 236 232 211 220 243 257 294 339 313 297 296 314 314 313 301
121 120 120 119 117 114 107 96 87 105 120 125 132 141 157 158 162 166 173 185 187 156 121 154 203 220 213 197 243 287 316 266 276 31 310 291 305 311 316 317 303 297 298
132 130 126 126 125 122 118 114 113 92 109 146 154 140 137 148 161 167 142 136 134 125 119 259 230 214 195 192 210 236 250 11 71 346 308 306 318 314 307 298 300 302 301
133 134 132 129 125 122 120 121 122 118 112 102 109 126 136 141 149 154 154 144 148 185 187 230 234 216 194 191 227 321 31 15 346 332 304 285 279 286 297 301 306 300 301
133 130 124 122 122 121 120 123 126 127 123 120 124 100 136 150 153 158 163 157 188 193 215 234 249 297 162 106 124 123 128 253 268 253 264 281 287 306 297 298 298 302 305
125 125 125 125 129 129 128 136 143 141 143 150 158 147 146 135 150 167 175 201 237 226 218 178 170 107 105 119 158 179 236 272 294 314 297 288 281 289 297 304 306 302 298
126 125 131 127 128 132 138 143 150 148 147 163 173 164 164 171 186 194 194 209 215 214 196 154 114 84 55 14 3 19 13 347 315 294 286 281 297 307 301 302 300 297 299
132 137 138 135 137 147 152 141 150 143 156 161 124 144 165 187 194 188 199 209 155 131 106 110 94 76 64 53 35 2 336 311 307 302 303 308 305 308 307 303 300 301 301
145 144 139 139 142 141 136 135 141 146 147 136 135 140 160 192 183 222 175 131 110 106 86 88 93 77 63 72 51 33 4 317 327 5 351 333 320 305 302 301 297 296 302
138 137 136 135 134 139 141 145 147 149 143 144 148 164 173 172 182 195 135 107 103 100 97 105 92 92 78 75 63 35 0 34 348 326 12 341 310 303 292 288 295 291 286
138 141 137 139 146 150 144 147 151 149 149 157 155 142 159 166 165 137 116 118 116 106 103 105 103 107 164 123 171 222 258 54 61 6 302 276 282 286 284 283 287 288 298
141 131 135 138 154 150 153 157 158 155 152 158 153 151 145 146 136 117 109 120 128 140 140 138 197 184 77 25 10 73 73 54 283 281 268 272 285 290 287 289 293 286 285